STARLINK-30103, 56290

Orbit data source: Space-Track

STARLINK-30103, 56290 is a payload satellite owned by SpaceX/Seattle (US) in LEO that was launched on Wed, 19 Apr 2023 UTC via an FALCON 9 launch vehicle from the Air Force Eastern Test Range (AFETR). Payload-class satellites include a variety of spacecraft equipped with specific instruments for various scientific and technological missions. These include communications satellites like Starlink; space stations such as the ISS; scientific satellites like the Hubble; Earth observation satellites from companies like Planet Labs, Umbra, and HawkEye 360; GPS; miniature CubeSats for education and research; and military/defense satellites.

Loading next visibility...
Identifier
56290, 2023-056E
Orbit
LEO
Last TLE update
13 hours ago
Origin
Manufacturer
SpaceX/Seattle
Mission
Operational Commercial Communications
Bus & Motor
STARLINK V2M, Unknown motor
Mass
730 kg wet, ~700 kg dry
Launch date (UTC)
2023-04-19 (2 years ago)
Launch vehicle
FALCON 9
Launch site
Air Force Eastern Test Range (AFETR)
Object type
Payload
Rocket body
Debris
Shape & HBR
Box + 2 Pan, 29 m
Radar Cross Section
33.884 m², Large (>1 m²)

Expand to show TLE details & history

TLE from 13 hours ago
0 STARLINK-30103
1 56290U 23056E   25130.52561246 -.00000090  00000-0  84280-5 0  9997
2 56290  43.0047  57.2980 0000961 244.6972 115.3771 15.02529609114429
Epoch: 2025-05-10T12:36Z
Definitive object data (Epoch: 2025-05-10T12:36:52.916Z)
Latitude
-0.00001°
Longitude
-0.48864°
Altitude
559.163 km
Speed
7.584 km/s
True Right ascension
03h 49m 11s
True Declination
0° 00' 00"
Sunlit
Object was in daylight at TLE epoch
Visualization TLE readout
Latitude
42.91769°
Longitude
93.99794°
Altitude
562.809 km
Speed
7.586 km/s
Apparent Right ascension
11h 23m 17s
Apparent Declination
72° 12' 23"
Sunlit
Object is in daylight
Visualization observer readout
Local Sidereal Time
10:04:02
Azimuth
10.747° NNE
Elevation
56.251°
Doppler factor
1
Orbital elements
Apogee altitude
561.689 km
Perigee altitude
560.356 km
Semi-major axis
6,939.159 km
Eccentricity
0.0000961
Inclination
43.0047°
RAAN
57.298°
Arg. of periapsis
244.6972°
True anomaly
115.38705°
Mean anomaly
115.3771°
Eccentric anomaly
115.38207°
Mean motion
3.75477 °/min
BSTAR
0.000008428
Orbital period
95.88 mins
Loading maneuver chart data...
Loading SW <> Apogee altitude chart data...
Loading historical data...
Loading historical data...
Loading historical data...
Loading historical data...
Loading historical data...
Loading historical data...
Loading historical data...

STARLINK-30103 Visibility forecast

Observer location: undefined°, undefined°

Span
Click to sort rows by Start time (UTC) header in descending order
Start Az.
Max El. time (UTC)
Max El. Az.
Max El.
End time (UTC)
End Az.
4 mins2025-05-11 01:48:04.695Z11.059° NNE2025-05-11 01:48:04.695Z11.059° NNE39.917°2025-05-11 01:52:04.695Z84.327° E
6 mins2025-05-11 03:26:04.695Z283.406° WNW2025-05-11 03:29:04.695Z167.41° S42.885°2025-05-11 03:32:04.695Z120.152° SE
6 mins2025-05-11 22:21:04.695Z220.382° SW2025-05-11 22:23:04.695Z172.846° S37.548°2025-05-11 22:27:04.695Z78.588° E
7 mins2025-05-12 00:01:04.695Z272.046° WNW2025-05-12 00:04:04.695Z348.445° N41.647°2025-05-12 00:08:04.695Z71.961° E
6 mins2025-05-12 01:42:04.695Z291.163° WNW2025-05-12 01:45:04.695Z9.809° NNE41.348°2025-05-12 01:48:04.695Z86.632° E
|